Погода в Среднем Карачане

Россия / Воронежская область     51°22′37″N   41°46′25″E
темп.,
°C
ветер,
м/с
пор.,
м/с
влажн.,
%
обл.,
%
осадки,
мм/ч
давл.,
гПа
погр.,
м
12 апреля, пн
пн1200:00+6св51096100 0.0 1027216
03:00+6св51096100 0.0 1027197
06:00+6всв51294100 0.0 1027210
09:00+13в597483 0.0 1027321
12:00+20вюв6941100 0.0 1026906
15:00+21вюв71037100 0.0 10261540
18:00+18вюв511467 0.0 1026248
21:00+13вюв4126246 0.0 1027197
13 апреля, вт
вт1300:00+11вюв4127176 0.0 1027208
03:00+9вюв4116371 0.0 1028187
06:00+7вюв410689 0.0 1028169
09:00+14юв59495 0.0 1028359
12:00+19юв68355 0.0 10271020
15:00+20юв783147 0.0 10261845
18:00+17вюв510400 0.0 1025257
21:00+12вюв411575 0.0 1026182
14 апреля, ср
ср1400:00+10вюв4116549 0.0 1025196
03:00+10вюв41267100 0.0 1024233
06:00+8вюв411729 0.0 1024213
09:00+14юв69485 0.0 1023483
12:00+18вюв683645 0.0 10211115
15:00+20юв68315 0.0 10201812
18:00+17вюв4841100 0.0 1019179
21:00+13вюв41056100 0.0 1019178
15 апреля, чт
чт1500:00+11вюв4965100 0.0 1019167
03:00+10вюв366899 0.0 101897
06:00+9вюв366997 0.0 1018103
09:00+14вюв5854100 0.0 1017405
12:00+18вюв5643100 0.0 10161055
15:00+20ююв4633100 0.0 10142092
18:00+17ююв2242100 0.0 101425
21:00+15ююв1145100 0.0 101410
16 апреля, пт
пт1600:00+14всв3351100 0.0 101342
03:00+12св3467100 0.1 101258
06:00+10св367722 0.0 1011128
09:00+15юв225879 0.0 1011467
12:00+19зюз3446100 0.0 10111346
15:00+17юз4757100 0.1 1011250
18:00+16юз36597 0.1 1011243
21:00+12зюз357582 0.2 101189